FW9909 Weather Reports


Display with metric or nautical units.
time (UTC)temp
F
wind
direction
speed
MPH
gust
MPH
rain 1hr
in
rain 24hr
in
rain mn
in
humidity
%
barometer
mb
20260509052522 57 59 1.0 2.0 0.00 0.02 0.00 91 1010.2
20260509051520 58 55 2.0 3.0 0.00 0.02 0.00 90 1010.1
20260509050538 58 61 1.0 2.0 0.00 0.02 0.00 89 1009.9
20260509045516 59 72 1.0 2.0 0.00 0.02 0.02 88 1009.9
20260509044534 59 49 1.0 2.0 0.00 0.02 0.02 88 1009.8
20260509043532 59 61 1.0 2.0 0.00 0.02 0.02 87 1009.9
20260509042531 60 0.0 1.0 0.00 0.02 0.02 85 1009.9
20260509041529 61 51 1.0 2.0 0.00 0.02 0.02 83 1009.8
20260509040527 62 59 1.0 2.0 0.00 0.02 0.02 81 1009.8
20260509035525 63 64 2.0 3.0 0.00 0.02 0.02 80 1009.7
20260509034523 63 61 4.0 7.0 0.00 0.02 0.02 80 1009.9
20260509033521 63 69 4.0 8.0 0.00 0.02 0.02 79 1010.2
20260509032519 64 57 4.0 7.0 0.00 0.02 0.02 76 1009.9
20260509031538 65 65 4.0 7.0 0.00 0.02 0.02 72 1009.9
20260509030516 65 53 3.0 6.0 0.00 0.02 0.02 69 1009.7
20260509025534 65 37 3.0 7.0 0.00 0.02 0.02 68 1009.4
20260509024532 66 42 3.0 6.0 0.00 0.02 0.02 66 1009.1
20260509023530 66 34 4.0 12.0 0.00 0.02 0.02 63 1008.8
20260509022528 66 57 2.0 6.0 0.00 0.02 0.02 62 1008.4
20260509021526 66 30 4.0 6.0 0.00 0.02 0.02 60 1007.9
20260509020525 66 232 3.0 7.0 0.00 0.02 0.02 60 1007.3
20260509015523 64 228 2.0 8.0 0.00 0.02 0.02 65 1007.2
20260509014521 64 237 1.0 3.0 0.00 0.02 0.02 67 1007.1
20260509013519 64 257 1.0 3.0 0.00 0.02 0.02 67 1006.9
20260509012517 64 168 1.0 2.0 0.00 0.02 0.02 68 1006.7
20260509011515 64 158 1.0 4.0 0.00 0.02 0.02 69 1006.5
20260509010533 64 244 0.0 2.0 0.00 0.02 0.02 69 1006.8
20260509005532 64 130 1.0 2.0 0.00 0.02 0.02 68 1007.1
20260509003528 64 130 1.0 2.0 0.00 0.02 0.02 71 1007.1
20260509002546 65 82 2.0 2.0 0.01 0.02 0.02 67 1007.1
20260509001524 65 60 0.0 2.0 0.02 0.02 0.02 66 1006.9
20260509000522 65 234 0.0 2.0 0.02 0.02 0.02 66 1006.9
20260508235520 65 193 2.0 5.0 0.02 0.02 0.02 66 1006.9
20260508234538 65 228 2.0 4.0 0.02 0.02 0.02 67 1007.4
20260508233516 66 238 2.0 4.0 0.02 0.02 0.02 63 1008.0
20260508232555 70 243 6.0 15.0 0.01 0.01 0.01 52 1009.0
20260508231533 71 253 1.0 4.0 0.00 0.00 0.00 52 1008.8
20260508230531 72 35 1.0 4.0 0.00 0.00 0.00 50 1008.5
20260508225529 73 321 1.0 2.0 0.00 0.00 0.00 48 1008.5
20260508224527 74 264 2.0 4.0 0.00 0.00 0.00 44 1008.4
20260508223525 75 233 2.0 6.0 0.00 0.00 0.00 43 1008.3
20260508222543 75 242 2.0 6.0 0.00 0.00 0.00 43 1008.5
20260508221521 75 239 3.0 6.0 0.00 0.00 0.00 42 1008.1
20260508220540 76 245 3.0 8.0 0.00 0.00 0.00 41 1008.0
20260508215518 77 259 3.0 8.0 0.00 0.00 0.00 41 1007.8
20260508214516 78 248 6.0 15.0 0.00 0.00 0.00 39 1007.6
20260508213534 79 231 5.0 13.0 0.00 0.00 0.00 41 1007.7
20260508212532 79 241 5.0 9.0 0.00 0.00 0.00 43 1007.7
20260508211530 79 258 5.0 9.0 0.00 0.00 0.00 42 1007.8
20260508210528 78 241 4.0 9.0 0.00 0.00 0.00 43 1008.1
20260508205527 78 250 6.0 10.0 0.00 0.00 0.00 39 1008.3
20260508204525 78 241 5.0 11.0 0.00 0.00 0.00 38 1008.4
20260508203543 78 223 5.0 10.0 0.00 0.00 0.00 40 1008.5
20260508202521 78 234 5.0 10.0 0.00 0.00 0.00 40 1008.9
20260508201519 77 229 5.0 10.0 0.00 0.00 0.00 44 1009.0
20260508200538 78 253 5.0 11.0 0.00 0.00 0.00 43 1009.1
20260508195515 77 241 3.0 6.0 0.00 0.00 0.00 48 1009.3
20260508194533 77 259 5.0 8.0 0.00 0.00 0.00 46 1009.7
20260508193532 76 264 3.0 7.0 0.00 0.00 0.00 47 1009.8
20260508192530 76 230 5.0 8.0 0.00 0.00 0.00 47 1009.9
20260508191528 76 250 3.0 5.0 0.00 0.00 0.00 51 1009.9
20260508190526 76 248 5.0 9.0 0.00 0.00 0.00 49 1010.1
20260508185524 75 254 3.0 6.0 0.00 0.00 0.00 49 1010.3
20260508184523 75 246 3.0 7.0 0.00 0.00 0.00 51 1010.3
20260508183521 74 243 5.0 9.0 0.00 0.00 0.00 50 1010.4
20260508182519 75 221 4.0 8.0 0.00 0.00 0.00 49 1010.7
20260508181517 74 242 4.0 9.0 0.00 0.00 0.00 49 1010.7
20260508180535 74 249 5.0 10.0 0.00 0.00 0.00 49 1011.1
20260508175533 74 234 5.0 10.0 0.00 0.00 0.00 51 1011.2
20260508174551 73 236 6.0 13.0 0.00 0.00 0.00 49 1011.5
20260508173549 72 248 5.0 11.0 0.00 0.00 0.00 50 1011.7
20260508172528 72 259 5.0 12.0 0.00 0.00 0.00 52 1011.7
20260508171526 72 240 5.0 10.0 0.00 0.00 0.00 50 1011.9
20260508170524 72 242 5.0 9.0 0.00 0.00 0.00 49 1012.0
20260508165522 72 232 4.0 11.0 0.00 0.00 0.00 50 1012.3
20260508164520 72 263 5.0 12.0 0.00 0.00 0.00 53 1012.4
20260508163518 71 241 5.0 12.0 0.00 0.00 0.00 53 1012.3
20260508162537 70 233 4.0 7.0 0.00 0.00 0.00 58 1012.5
20260508161535 69 239 6.0 13.0 0.00 0.00 0.00 56 1012.5
20260508160533 69 248 3.0 8.0 0.00 0.00 0.00 58 1012.7
20260508155551 69 233 4.0 9.0 0.00 0.00 0.00 59 1012.8
20260508154529 68 232 4.0 8.0 0.00 0.00 0.00 59 1012.9
20260508153527 67 256 4.0 9.0 0.00 0.00 0.00 59 1013.1
20260508152525 66 241 4.0 10.0 0.00 0.00 0.00 60 1013.3
20260508151543 65 247 5.0 10.0 0.00 0.00 0.00 61 1013.3
20260508150522 64 237 4.0 9.0 0.00 0.00 0.00 62 1013.1
20260508145520 63 238 5.0 10.0 0.00 0.00 0.00 63 1013.4
20260508144538 63 229 5.0 12.0 0.00 0.00 0.00 63 1013.5
20260508143516 63 246 6.0 14.0 0.00 0.00 0.00 63 1013.6
20260508142555 62 252 6.0 10.0 0.00 0.00 0.00 63 1013.7
20260508141552 61 249 5.0 10.0 0.00 0.00 0.00 64 1013.6
20260508140530 60 231 6.0 12.0 0.00 0.00 0.00 64 1013.5
20260508135529 60 228 6.0 10.0 0.00 0.00 0.00 64 1013.8
20260508134527 60 229 6.0 12.0 0.00 0.00 0.00 65 1013.6
20260508133525 59 240 6.0 10.0 0.00 0.00 0.00 66 1013.6
20260508132523 58 227 3.0 7.0 0.00 0.00 0.00 69 1013.6
20260508131541 57 230 3.0 8.0 0.00 0.00 0.00 69 1013.6
20260508130519 56 225 5.0 10.0 0.00 0.00 0.00 70 1013.8
20260508125618 55 230 4.0 8.0 0.00 0.00 0.00 71 1013.6
20260508124516 54 202 4.0 7.0 0.00 0.00 0.00 73 1013.4
20260508123534 54 221 5.0 9.0 0.00 0.00 0.00 74 1013.3
20260508122532 52 219 4.0 9.0 0.00 0.00 0.00 76 1013.3
20260508121530 51 201 4.0 6.0 0.00 0.00 0.00 78 1013.3
20260508120528 51 189 5.0 11.0 0.00 0.00 0.00 78 1013.2
20260508115526 51 197 4.0 8.0 0.00 0.00 0.00 79 1013.2
20260508114545 50 157 3.0 5.0 0.00 0.00 0.00 79 1013.3
20260508113523 50 195 3.0 6.0 0.00 0.00 0.00 80 1013.0
20260508112521 49 155 3.0 6.0 0.00 0.00 0.00 81 1013.1
20260508111539 49 43 3.0 6.0 0.00 0.00 0.00 82 1013.1
20260508110517 49 158 3.0 6.0 0.00 0.00 0.00 82 1012.9
20260508105515 48 164 2.0 4.0 0.00 0.00 0.00 83 1012.8
20260508104534 48 155 2.0 4.0 0.00 0.00 0.00 83 1012.9
20260508103632 48 134 4.0 6.0 0.00 0.00 0.00 82 1013.0
20260508102530 48 98 2.0 5.0 0.00 0.00 0.00 82 1013.0
20260508101528 48 54 2.0 5.0 0.00 0.00 0.00 83 1013.0
20260508100546 48 69 3.0 5.0 0.00 0.00 0.00 82 1013.0
20260508095524 48 153 2.0 4.0 0.00 0.00 0.00 81 1013.0
20260508094522 49 60 2.0 3.0 0.00 0.00 0.00 80 1012.9
20260508093540 50 110 2.0 3.0 0.00 0.00 0.00 79 1012.8
20260508092539 50 124 2.0 4.0 0.00 0.00 0.00 79 1012.8
20260508091517 49 129 2.0 4.0 0.00 0.00 0.00 80 1012.9
20260508090555 49 108 1.0 4.0 0.00 0.00 0.00 80 1012.9
20260508085533 50 114 2.0 5.0 0.00 0.00 0.00 79 1013.0
20260508084531 50 131 1.0 4.0 0.00 0.00 0.00 79 1013.0
20260508083529 50 142 2.0 5.0 0.00 0.00 0.00 78 1013.1
20260508082528 50 155 2.0 5.0 0.00 0.00 0.00 78 1013.2
20260508081546 50 139 2.0 6.0 0.00 0.00 0.00 78 1013.3
20260508080524 50 183 2.0 5.0 0.00 0.00 0.00 78 1013.2
20260508075522 50 123 2.0 4.0 0.00 0.00 0.00 78 1013.2
20260508074520 50 128 3.0 5.0 0.00 0.00 0.00 78 1013.4
20260508073518 50 115 2.0 4.0 0.00 0.00 0.00 78 1013.5
20260508072516 50 122 2.0 4.0 0.00 0.00 0.00 77 1013.7
20260508071535 50 121 3.0 5.0 0.00 0.00 0.00 76 1013.7
20260508070533 50 122 1.0 4.0 0.00 0.00 0.00 76 1013.9
20260508065531 50 111 2.0 4.0 0.00 0.00 0.00 76 1014.0
20260508064529 50 117 2.0 3.0 0.00 0.00 0.00 76 1013.9
20260508063547 50 118 2.0 4.0 0.00 0.00 0.00 75 1014.0
20260508062526 50 112 2.0 4.0 0.00 0.00 0.00 78 1014.1
20260508061523 50 94 2.0 2.0 0.00 0.00 0.00 77 1014.1
20260508060522 50 103 2.0 4.0 0.00 0.00 0.00 77 1014.0
20260508055520 50 106 2.0 3.0 0.00 0.00 0.00 76 1014.2
20260508054538 50 96 2.0 3.0 0.00 0.00 0.00 77 1014.1
20260508053516 50 119 3.0 4.0 0.00 0.00 0.00 78 1014.1